Regional Weather Roundup
Issued by NWS Newport/Morehead, NC

Current Version | Previous Version | Graphics & Text | Print | Product List | Glossary On
Versions: 1 2 3 4 5 6 7 8 9 10 11 12 13 14 15 16 17 18 19 20 21 22 23 24 25 26 27 28 29 30 31 32 33 34 35 36 37 38 39 40 41 42 43 44 45 46 47 48 49 50
000 ASUS42 KMHX 310313 RWRMHX WEATHER ROUNDUP FOR EASTERN NORTH CAROLINA NATIONAL WEATHER SERVICE NEWPORT/MOREHEAD CITY NC 1100 PM EDT SUN AUG 30 2015 NOTE: "FAIR" INDICATES FEW OR NO CLOUDS BELOW 12,000 FEET WITH NO SIGNIFICANT WEATHER AND/OR OBSTRUCTIONS TO VISIBILITY NCZ015>017-031-032-045>047-102-103-310400- NORTH COAST CITY SKY/WX TMP DP RH WIND PRES REMARKS EDENTON CLOUDY 76 71 84 S7 30.13F ELIZABETH CITY CLOUDY 75 72 90 S5 30.13S KITTY HAWK CLOUDY 76 70 82 CALM 30.12S MANTEO CLOUDY 77 73 86 SW6 30.13F $$ NCZ045>047-081-094-103-104-310400- CENTRAL COAST CITY SKY/WX TMP DP RH WIND PRES REMARKS FRISCO CLOUDY 77 72 84 SW3 30.13F SWANQUARTER NOT AVBL $$ NCZ095-097-098-100-101-310400- SOUTHERN COAST CITY SKY/WX TMP DP RH WIND PRES REMARKS BEAUFORT CLOUDY 75 71 87 CALM 30.13F CEDAR ISLAND NOT AVBL JACKSONVILLE CLOUDY 73 70 90 CALM 30.13F PINEY ISLAND CLOUDY N/A N/A N/A S5 30.13F WILMINGTON CLOUDY 72 69 90 CALM 30.12F $$ NCZ011>013-027>030-043-044-078>080-089-090>093-098-310400- COASTAL PLAIN CITY SKY/WX TMP DP RH WIND PRES REMARKS AHOSKIE CLOUDY 72 66 82 CALM 30.12F CLINTON CLOUDY 70 69 98 CALM 30.13F ELIZABETHTOWN CLOUDY 71 71 100 CALM 30.12S FOG GOLDSBORO CLOUDY 74 67 79 CALM 30.12F GREENVILLE CLOUDY 75 66 73 SW3 30.14F HAVELOCK CLOUDY 75 68 78 CALM 30.14F KENANSVILLE N/A 71 68 90 CALM 30.13F KINSTON CLOUDY 74 68 81 CALM 30.14S NEW BERN CLOUDY 73 69 87 CALM 30.14F RICHLANDS CLOUDY 73 66 78 CALM 30.13F ROCKY MOUNT CLOUDY 75 65 70 SW5 30.13F WASHINGTON CLOUDY 76 67 75 SW5 30.13F WHITEVILLE CLOUDY 70 68 95 CALM 30.12S FOG $$ AMZ130-135-150-152-154-156-158-170-250-252-270-ANZ085-086-088-633-658-670-310400- MARINE OBSERVATIONS STATION/POSITION TIME TEMP WIND PRES WAVE SWELL AIR SEA DIR/SP/G HT/PER HT/PER (UTC) (F) (DEG/KT/KT) (MB) (FT/S) (FT/S) CHESAPEAKE LIGHT 0200 78 180/ 6/ 6 1020.4 64 E VA BEACH 0250 77 78 160/ 2/ 2 1019.5 3/10 3/10 DUCK NOT AVBL 2 E DUCK 0211 79 N/A 3/11 2/11 OREGON INLET NOT AVBL 13E OREGON INLT 0300 78 N/A 3/10 2/11 HATTERAS CG NOT AVBL DIAMOND BUOY 0250 79 83 260/ 2/ 4 1020.5 3/10 3/10 CAPE LOOKOUT 0300 78 190/ 2/ 3 1020.1 BEAUFORT LAB NOT AVBL 30 SE NEW RVR IN 0208 80 81 340/ 4/ 6 1020.7 30 SE NEW RVR IN 0225 81 N/A 3/11 2/11 27 SE WRIGHTSVLE 0200 75 82 CALM / 2 N/A 5 SE WRIGHTSVLE 0208 79 82 110/ 6/ 8 1020.2 225 S CAPE HAT 0250 84 84 180/ 8/ 12 1020.8 4/ 9 3/ 9 41 SE CHARLESTON 0250 80 85 110/ 17/ 21 1018.1 6/10 5/10 $$

USA.gov is the U.S. government's official web portal to all federal, state and local government web resources and services.